Погода в Алейске

Погода в Алейске : погода сейчас, прогноз погоды и архив. Всё, что Вы хотите узнать о погоде в Алейске!

Хотите узнать прогноз погоды в Алейске? Тогда Вам сюда: Погода в Алейске

Поиск расширенной информации на нашем сайте:

Другие новости

Новости СМИ2

Главная страница сайта

Новости сайта

03.07.2017

Напоминаем, что на нашем специализированном сайте Метеоцентр.Азия вы можете получить высокодетализированные автоматические прогнозы погоды по пунктам России, СНГ и мира в авиационном формате (включающие направление и скорость ветра, видимость, явления погоды, количество и форму облачности, нижнюю и верхнюю границу облачности).

Рекомендуем: овощи доставка стоимость

Погода в Алейске - сегодня

Время (UTC), дата Ветер
(°,м/с) 
Видим.   Явления Облачность Т
(°С)
Тd
(°С)
f(%) Тe
(°С)
Pmin
(гПа)
dP
(гПа)
Po
(мм)
O2
(г/м3)
Тmin Tmax R s Состояние
почвы
21 17.02.18 тихо ()   10 км    ясно 
-26.5 -30 72 -27  1043.1  -0.3  764  343           
00 18.02.18 тихо ()   10 км    6/6 600 м 
[Sc]
-27.6 -31.3 71 -28  1043.5  0.3  764  344  -27.8      неравномерный
сухой снег
100% 
03 18.02.18 тихо ()   2000 м  дымка  10/10 300 м 
[St]
-25.9 -29.4 72 -26  1043.8  0.4  764  342           
06 18.02.18 170 (Ю) 10 км    8/8 600 м 
[Sc]
-18.6 -22.2 73 -19  1042.4  -0.6  764  332           
09 18.02.18 170 (Ю) 20000 м    4/4 1000 м 
[Sc]
-15.4 -20.7 64 -18  1041.4  -0.7  763  327           
12 18.02.18 190 (Ю) 20000 м    3/0 верхняя 
[Cs]
-17.4 -21.6 70 -18  1041.4  -0.1  763  330    -14.9       
15 18.02.18 190 (Ю) 20000 м    3/0 верхняя 
[Cs]
-20.6 -23.4 78 -21  1042  0.2  763  334           
18 18.02.18 180 (Ю) 20000 м    ясно 
-23.5 -26.7 75 -24  1041.7  -1.7  763  338           
21 18.02.18 190 (Ю) 20000 м    ясно 
-22.4 -25.4 76 -27  1041.6  763  337           
00 19.02.18 200 (Ю) 20000 м    ясно 
-21.8 -24.9 76 -26  1041.9  0.4  763  336  -24.6      неравномерный
сухой снег
100% 
03 19.02.18 190 (Ю) 4000 м  дымка  9/3 1000 м средняя 
[Sc|Ac trans]
-20 -23 77 -24  1042.6  0.8  764  334           
06 19.02.18 200 (Ю) 4000 м  слаб. ливневой снег  9/8 600 м кучево-дожд., средняя 
[Cb cap|Ac trans]
-14.8 -18.5 73 -20  1041.9  -0.2  764  327           
12 19.02.18 190 (Ю) 4{10}  4000 м  слаб. ливневой снег  10/10 600 м кучево-дожд. 
[Cb cap]
-11.9 -15 78 -16  1041.5  0.3  763  323    -11.8  0.3     
18 19.02.18 190 (Ю) 4000 м  слаб. ливневой снег  10/10 600 м кучево-дожд. 
[Cb cap]
-12.3 -16 74 -17  1042  -0.1  764  324           
21 19.02.18 190 (Ю) 10 км  {ливн. осадки}  3/0 верхняя 
[Ci fib]
-12.9 -16.8 73 -16  1041.4  -0.6  763  324           
00 20.02.18 200 (Ю) 10 км  {ливн. осадки}  3/0 средняя 
[Ac trans]
-15.1 -18.6 75 -17  1041.9  0.2  764  327  -15.2    0.0  неравномерный
сухой снег
100% 
03 20.02.18 200 (Ю) 10 км    8/8 600 м 
[Sc]
-15.1 -18.7 74 -17  1041.7  -0.2  763  327  -15.8         
06 20.02.18 180 (Ю) 10 км    8/3 600 м верхняя 
[Sc|Cs]
-10.8 -16.5 63 -13  1040.1  -1.1  763  321           
09 20.02.18 210 (ЮЗ) 20000 м    6/0 верхняя 
[Ci fib]
-6.9 -13.6 59 -8  1038.2  -1.6  761  316           
12 20.02.18 тихо ()   20000 м    10/0 верхняя 
[Cs]
-10.8 -15.6 68 -11  1037  -1.5  760  320    -6.9       
15 20.02.18 350 (С) 20000 м    ясно 
-14.6 -17.2 81 -15  1035.9  -1.4  759  325           
18 20.02.18 тихо ()   20000 м    ясно 
-17.1 -19.6 81 -17  1033.9  -2.2  758  327           
21 20.02.18 300 (СЗ) 4000 м  дымка  ясно 
-17.7 -20.3 80 -18  1032.7  -1.2  757  328           
00 21.02.18 тихо ()   4000 м  дымка  ясно 
-19.6 -22.4 78 -20  1031.2  -1.6  755  330  -19.6      неравномерный
сухой снег
100% 
06 21.02.18 050 (СВ) 10 км    10/0 средняя 
[As trans]
-9.9 -14.1 71 -12  1027.6  -1.5  753  316           
Время (UTC), дата Ветер
(°,м/с) 
Видим.   Явления Облачность Т
(°С)
Тd
(°С)
f(%) Тe
(°С)
Pmin
(гПа)
dP
(гПа)
Po
(мм)
O2
(г/м3)
Тmin Tmax R s Состояние
почвы

Для получения пояснительной информации подведите курсор к названию столбца.

ПОГОДА в Алейске - архив

Всё, что Вы хотите узнать о погоде в Алейске - удобно и подробно!

Выберите нужную дату (начиная с 1 января 2015* года) и нажмите кнопку "Найти".
Будут отображены архивные сводки погоды по пункту Алейск, начиная с указанной даты.


Отображать данные в формате CSV (для использования в таблицах Excel)


Внимание! Наш архив погоды предназначен исключительно для личного некоммерческого использования в познавательных целях. Если Вам необходимы официальные справки о состоянии погоды (для производственных, юридических, коммерческих и т.п. целей), обращайтесь в органы Росгидромета.

*Примечание: данная дата относится к архиву по метеостанциям СССР (Россия, СНГ, Балтия).
Архив по метеостанциям Зарубежной Европы и Азии (кроме Китая) хранится 10 дней, по другим регионам земного шара (Китай, Африка, Америка, Австралия, Океания) - 1 день.

Алейск - район местоположения метеостанции


Название, широта, долгота, высота метеостанции:
Алейск 52.6°ш. 82.8°д. 175 м над ур. моря [Российская Федерация]

Дополнительная информация

В oтличие oт бoльшинства пoгoдных сайтoв мы публикуем пoдрoбную метеoинфoрмацию в детальнoм прoфессиoнальнoм фoрмате.

Характеристики температуры и влажнoсти вoздуха измеряются на высoте 2 м в тени вдали oт зданий и деревьев.
Скoрoсть ветра измеряется на высoте 10 м (на урoвне рoста челoвека скoрoсть ветра ниже в 1.5-2 раза). Если метеoстанция нахoдится в гoрoде или в лесу, тo скoрoсть ветра занижена на 2-4 м/с пo сравнению с oткрытым местoм. Скoрoсть ветра над акватoриями крупных рек и oзёр, а также на вершинах хoлмoв на 2-5 м/с выше, чем в oбычных услoвиях.
Атмoсфернoе давление в разных тoчках местнoсти мoжет значительнo oтличаться oт давления на метеoстанции, в зависимoсти oт услoвий рельефа (при пoдъёме на 10 м давление пoнижается примернo на 1 мм рт.ст.).